Flag for U.S.A. Weather past 2 weeks in Kansas City, Missouri, U.S.A.

32 °F

Light freezing rain. Overcast.

Feels Like: 22 °F
Forecast: 30 / 34 °F
Wind: 13 mph from Northeast

Location: Kansas City Downtown Airport

Current Time: Nov 28, 2015 at 7:45:25 AM

Latest Report: Nov 28, 2015 at 6:54 AM

Visibility: 9 mi

Pressure: 30.40 "Hg

Humidity: 88%

Dew point: 29 °F

Location of Kansas CityLocation

Historic Weather in Kansas City — Graph


Kansas City temperature yesterday

Maximum temperature yesterday: 35 °F (at 12:54 AM)
Minimum temperature yesterday: 32 °F (at 1:54 PM)
Average temperature yesterday: 33 °F

Past Weeks' High & Low Weather Summary

High70 °F (Nov 14, 1:54 PM)97% (Nov 26, 1:01 PM)30.47 "Hg (Nov 26, 1:01 PM)
Low30 °F (Nov 21, 9:54 PM)21% (Nov 14, 2:54 PM)29.34 "Hg (Nov 18, 3:54 AM)
Average49 °F62%30.05 "Hg
* Reported Nov 13 6:54 AM — Nov 28 6:54 AM, Kansas City, Weather by CustomWeather, © 2015

Note: Actual official high and low records may vary slightly from our data, if they occured in-between our weather recording intervals... More about our weather records


Kansas City weather history for previous 24 hours

Time TempWeatherWind HumidityBarometerVisibility
6:54 AM
Sat, Nov 28
32 °FLight freezing rain. Overcast.13 mph88%30.40 "Hg9 mi
5:54 AM32 °FLight freezing rain. Low clouds.9 mph92%30.42 "Hg7 mi
4:59 AM32 °FLight freezing rain. Ice fog.7 mph92%30.41 "Hg5 mi
3:54 AM32 °FIce fog.10 mph88%30.42 "Hg4 mi
2:54 AM32 °FOvercast.8 mph88%30.43 "Hg10 mi
1:54 AM32 °FLow clouds.13 mph88%30.41 "Hg10 mi
12:54 AM32 °FOvercast.12 mph88%30.44 "Hg10 mi
11:54 PM
Fri, Nov 27
32 °FOvercast.10 mph88%30.45 "Hg10 mi
10:54 PM32 °FOvercast.9 mph88%30.45 "Hg10 mi
9:54 PM32 °FOvercast.10 mph88%30.45 "Hg10 mi
8:54 PM32 °FOvercast.12 mph88%30.45 "Hg10 mi
7:54 PM32 °FIce fog.13 mph92%30.46 "Hg4 mi
6:54 PM32 °FOvercast.10 mph92%30.47 "Hg9 mi
5:54 PM33 °FOvercast.12 mph88%30.45 "Hg10 mi
4:54 PM32 °FOvercast.12 mph92%30.44 "Hg10 mi
3:54 PM33 °FOvercast.14 mph88%30.42 "Hg10 mi
2:54 PM33 °FLight freezing rain. Overcast.10 mph88%30.42 "Hg9 mi
1:54 PM32 °FIce fog.14 mph92%30.42 "Hg6 mi
12:54 PM33 °FOvercast.14 mph85%30.44 "Hg7 mi
11:54 AM33 °FOvercast.12 mph88%30.45 "Hg10 mi
10:54 AM33 °FLight freezing rain. Fog.13 mph88%30.45 "Hg6 mi
10:02 AM33 °FFreezing rain. Fog.15 mph85%30.42 "Hg6 mi
9:54 AM33 °FLight rain. Overcast.13 mph85%30.44 "Hg8 mi
8:54 AM33 °FLight rain. Overcast.14 mph88%30.41 "Hg10 mi
7:54 AM33 °FLight rain. Overcast.15 mph85%30.42 "Hg10 mi
Weather by CustomWeather, © 2015

See weather overviewHow to use our weather pages